Вернуться в каталог

STARLINK-34346

АктивенСвязьSSO
NORAD 64155·PAYLOAD·🇺🇸 United States

Запущен May 27, 2025 с Vandenberg Space Force Base

Loading…

Ближайшие Пролёты (ближайшие 24 часа)

TLE

СвежийSource: CelesTrak SupGP

Эпоха: Sep 15, 2026, 03:41 UTC

1 64155C 25112K   26258.15395833  .00035642  00000+0  10630-2 0  2581
2 64155  97.2787 305.3058 0001019 140.7191  67.7415 15.34690731    11

Отслеживайте STARLINK-34346 в реальном времени с AllMySat

Download on the App Store